Nome, AK

7:52 PM AKST on November 22, 2017 (GMT -0900)
Nome

Weather History for PAOM - February, 2013

Change the Weather History Date:

Tuesday, February 12, 2013

  Actual Average Record
Temperature  
Mean Temperature 10 °F 7 °F  
Max Temperature 20 °F 15 °F 43 °F (1970)
Min Temperature 0 °F -1 °F -34 °F (1952)
Degree Days  
Heating Degree Days 55 58  
Month to date heating degree days 689 704  
Since 1 July heating degree days 8406 8372  
Cooling Degree Days 0 0  
Month to date cooling degree days 0 0  
Year to date cooling degree days 0 0  
Moisture  
Dew Point 10 °F    
Average Humidity 0    
Maximum Humidity 0    
Minimum Humidity 0    
Precipitation  
Precipitation 0.04 in 0.03 in 0.44 in (1946)
Month to date precipitation 0.28 0.39  
Year to date precipitation 1.44 1.33  
Snow  
Snow 0.80 in 0.40 in 9.30 in (2005)
Month to date snowfall 5.8 5.0  
Since 1 July snowfall 39.6 49.5  
Snow Depth 29.00 in    
Sea Level Pressure  
Sea Level Pressure 29.55 in    
Wind  
Wind Speed 13 mph (NE)    
Max Wind Speed 24 mph    
Max Gust Speed 31 mph    
Visibility 5 miles    
Events Snow    
T = Trace of Precipitation, MM = Missing Value Source: NWS Daily Summary

Daily Weather History Graph

Daily Weather History Graph

Search for Another Location

Airport or City:

Trip Planner

Search our weather history database for the weather conditions in past years. The results will help you decide how hot, cold, wet, or windy it might be!

Date:

Astronomy

Feb. 12, 2013 Rise Set
Actual Time 10:07 AM AKST 6:25 PM AKST
Civil Twilight 9:14 AM AKST 7:18 PM AKST
Nautical Twilight 8:17 AM AKST 8:16 PM AKST
Astronomical Twilight 7:21 AM AKST 9:12 PM AKST
Moon 9:50 AM AKST (2/12) 11:13 PM AKST (2/12)
Length of Visible Light 10h 04m
Length of Day
8h 18m
Waxing Crescent, 8% of the Moon is Illuminated
Feb 12
Waxing Crescent
Feb 17
First Quarter
Feb 25
Full
Mar 4
Last Quarter
Mar 11
New

Hourly Weather History & Observations

Time (AKST) Temp. Windchill Dew Point Humidity Pressure Visibility Wind Dir Wind Speed Gust Speed Precip Events Conditions
12:53 AM 5.0 °F -9.1 °F 3.0 °F 92% 29.60 in 10.0 mi ENE 9.2 mph - N/A   Partly Cloudy
1:11 AM 6.8 °F -3.5 °F 3.2 °F 85% 29.61 in 10.0 mi ENE 5.8 mph - N/A   Overcast
1:53 AM 7.0 °F -1.7 °F 3.9 °F 87% 29.62 in 9.0 mi East 4.6 mph - 0.00 in Snow Light Snow
2:24 AM 8.6 °F 0.1 °F 5.0 °F 85% 29.61 in 9.0 mi ENE 4.6 mph - 0.00 in   Overcast
3:53 AM 7.0 °F -4.5 °F 3.9 °F 87% 29.62 in 10.0 mi NE 6.9 mph - N/A   Mostly Cloudy
4:53 AM 9.0 °F -5.1 °F 5.0 °F 84% 29.62 in 10.0 mi NNE 10.4 mph - N/A   Overcast
5:53 AM 9.0 °F -3.2 °F 3.9 °F 80% 29.61 in 10.0 mi North 8.1 mph - N/A   Overcast
6:53 AM 8.1 °F -7.0 °F 3.0 °F 80% 29.62 in 10.0 mi North 11.5 mph - N/A   Scattered Clouds
7:53 AM 10.9 °F -0.8 °F 3.9 °F 73% 29.60 in 10.0 mi North 8.1 mph - N/A   Overcast
8:53 AM 10.9 °F 0.2 °F 5.0 °F 77% 29.57 in 10.0 mi NNW 6.9 mph - N/A   Overcast
9:53 AM 12.0 °F 1.5 °F 7.0 °F 80% 29.55 in 4.0 mi North 6.9 mph - 0.00 in Snow Light Snow
10:49 AM 14.0 °F -2.0 °F 8.6 °F 79% 29.57 in 1.8 mi NNE 16.1 mph - 0.00 in Snow Light Snow
10:50 AM 14.0 °F -1.4 °F 9.0 °F 80% 29.57 in 1.8 mi NNE 15.0 mph - 0.00 in Snow Light Snow
10:58 AM 12.2 °F -4.3 °F 8.6 °F 85% 29.57 in 2.0 mi NNE 16.1 mph - 0.00 in Snow Light Snow
11:28 AM 12.2 °F -3.1 °F 8.6 °F 85% 29.55 in 4.0 mi NNE 13.8 mph - 0.00 in Snow Light Snow
11:53 AM 12.9 °F -2.8 °F 8.1 °F 81% 29.55 in 2.0 mi NNE 15.0 mph - 0.00 in Snow Light Snow
11:59 AM 12.2 °F -3.7 °F 8.6 °F 85% 29.54 in 1.5 mi NNE 15.0 mph - 0.00 in Snow Light Snow
12:09 PM 12.2 °F -4.3 °F 10.4 °F 92% 29.53 in 1.0 mi NNE 16.1 mph - 0.00 in Snow Light Snow
12:31 PM 12.2 °F -3.7 °F 10.4 °F 92% 29.52 in 0.8 mi NNE 15.0 mph - 0.00 in Snow Light Snow
12:45 PM 14.0 °F -2.0 °F 10.4 °F 86% 29.53 in 1.8 mi NNE 16.1 mph - 0.00 in Snow Light Snow
12:53 PM 14.0 °F -2.0 °F 10.0 °F 84% 29.53 in 1.5 mi NNE 16.1 mph - 0.01 in Snow Light Snow
1:08 PM 14.0 °F -1.4 °F 10.4 °F 86% 29.52 in 3.0 mi NE 15.0 mph - 0.00 in Snow Light Snow
1:13 PM 15.8 °F 0.9 °F 10.4 °F 79% 29.52 in 2.0 mi NE 15.0 mph - 0.00 in Snow Light Snow
1:22 PM 15.8 °F 0.9 °F 10.4 °F 79% 29.53 in 1.2 mi NE 15.0 mph - 0.00 in Snow Light Snow
1:53 PM 15.1 °F -0.6 °F 10.0 °F 80% 29.53 in 1.5 mi NNE 16.1 mph - 0.00 in Snow Light Snow
1:59 PM 15.8 °F 1.4 °F 10.4 °F 79% 29.52 in 3.0 mi NNE 13.8 mph - 0.00 in Snow Light Snow
2:20 PM 15.8 °F 2.7 °F 10.4 °F 79% 29.52 in 2.0 mi NE 11.5 mph - 0.01 in Snow Light Snow
2:53 PM 16.0 °F 2.3 °F 10.9 °F 81% 29.52 in 1.0 mi NNE 12.7 mph - 0.01 in Snow Light Snow
3:17 PM 15.8 °F 0.9 °F 10.4 °F 79% 29.51 in 3.0 mi NE 15.0 mph - 0.00 in Snow Light Snow
3:53 PM 18.0 °F 2.2 °F 14.0 °F 84% 29.50 in 3.0 mi ENE 18.4 mph 24.2 mph 0.00 in Snow Light Snow
4:01 PM 17.6 °F 2.2 °F 14.0 °F 86% 29.50 in 2.5 mi ENE 17.3 mph 25.3 mph 0.00 in Snow Light Snow
4:06 PM 17.6 °F 1.7 °F 14.0 °F 86% 29.50 in 1.8 mi ENE 18.4 mph 25.3 mph 0.00 in Snow Light Snow
4:26 PM 17.6 °F 0.9 °F 15.8 °F 93% 29.49 in 1.2 mi ENE 20.7 mph - 0.00 in Snow Light Snow
4:53 PM 19.0 °F 2.7 °F 16.0 °F 88% 29.49 in 2.0 mi ENE 20.7 mph 28.8 mph 0.00 in Snow Blowing Snow
5:36 PM 19.4 °F 2.8 °F 17.6 °F 93% 29.49 in 1.0 mi East 21.9 mph 28.8 mph 0.01 in Snow Blowing Snow
5:49 PM 19.4 °F 3.2 °F 17.6 °F 93% 29.49 in 3.0 mi ESE 20.7 mph - 0.01 in   Overcast
5:53 PM 19.0 °F 3.2 °F 17.1 °F 92% 29.49 in 4.0 mi East 19.6 mph - 0.01 in   Overcast
6:23 PM 17.6 °F 1.3 °F 14.0 °F 86% 29.50 in 6.0 mi ESE 19.6 mph - 0.01 in   Mostly Cloudy
6:53 PM 17.1 °F 0.1 °F 12.9 °F 84% 29.50 in 10.0 mi ESE 20.7 mph - 0.01 in   Mostly Cloudy
7:53 PM 12.9 °F -5.3 °F 10.0 °F 88% 29.52 in 5.0 mi ESE 20.7 mph - 0.00 in Snow Light Snow
8:53 PM 12.9 °F -4.9 °F 10.0 °F 88% 29.53 in 3.0 mi East 19.6 mph - 0.00 in Snow Light Snow
9:53 PM 12.9 °F -3.9 °F 10.9 °F 92% 29.57 in 5.0 mi East 17.3 mph - 0.00 in   Overcast
10:53 PM 12.9 °F -2.8 °F 10.0 °F 88% 29.55 in 8.0 mi East 15.0 mph - 0.00 in Snow Light Snow
11:53 PM 12.9 °F -2.8 °F 10.0 °F 88% 29.57 in 8.0 mi East 15.0 mph - 0.00 in Snow Light Snow